RYR260 LGAV-LIBD

Flight info

Callsign RYR260
Flight time 1h 14m
Altitude 38000
Route KOR UL53 OLGAT DCT NUCRE/N0440F390 DCT XAPAT DCT KAPPO/N0336F180 L612 DOLON
Aircraft B38M/M-SDE1FGHILORVWXY/HB1

Departure

Time 2026-04-25 10:18
Airport Athens Eleftherios Venizelos International Airport (LGAV)

Arrival

Time 2026-04-25 11:33
Airport Bari Karol Wojtyła International Airport (LIBD)
Time Latitude Longitude Altitude Speed Heading
2026-04-25 09:53 37.94113 23.95376 299 ft 0 kts 218°
2026-04-25 10:06 37.94115 23.95377 272 ft 2 kts 217°
2026-04-25 10:06 37.94128 23.95390 301 ft 2 kts 217°
2026-04-25 10:06 37.94142 23.95402 300 ft 2 kts 215°
2026-04-25 10:06 37.94156 23.95414 299 ft 2 kts 211°
2026-04-25 10:07 37.94170 23.95424 301 ft 2 kts 197°
2026-04-25 10:07 37.94186 23.95422 302 ft 2 kts 136°
2026-04-25 10:07 37.94190 23.95417 301 ft 0 kts 128°
2026-04-25 10:10 37.94188 23.95420 300 ft 2 kts 128°
2026-04-25 10:10 37.94171 23.95448 299 ft 5 kts 128°
2026-04-25 10:11 37.94153 23.95488 301 ft 5 kts 107°
2026-04-25 10:11 37.94144 23.95533 302 ft 5 kts 110°
2026-04-25 10:11 37.94126 23.95572 300 ft 5 kts 126°
2026-04-25 10:11 37.94105 23.95605 299 ft 0 kts 128°
2026-04-25 10:12 37.94099 23.95613 298 ft 3 kts 131°
2026-04-25 10:12 37.94062 23.95648 296 ft 9 kts 166°
2026-04-25 10:12 37.93972 23.95587 300 ft 7 kts 216°
2026-04-25 10:13 37.93921 23.95538 295 ft 12 kts 219°
2026-04-25 10:13 37.93898 23.95516 297 ft 0 kts 217°
2026-04-25 10:13 37.93895 23.95513 296 ft 0 kts 217°
2026-04-25 10:13 37.93891 23.95510 296 ft 2 kts 218°
2026-04-25 10:14 37.93864 23.95483 298 ft 11 kts 217°
2026-04-25 10:14 37.93786 23.95409 297 ft 17 kts 217°
2026-04-25 10:14 37.93677 23.95307 299 ft 20 kts 216°
2026-04-25 10:14 37.93567 23.95204 296 ft 19 kts 216°
2026-04-25 10:15 37.93461 23.95103 298 ft 19 kts 218°
2026-04-25 10:15 37.93360 23.95004 299 ft 18 kts 216°
2026-04-25 10:15 37.93261 23.94911 299 ft 17 kts 218°
2026-04-25 10:15 37.93166 23.94820 298 ft 17 kts 216°
2026-04-25 10:16 37.93074 23.94734 300 ft 16 kts 217°
2026-04-25 10:16 37.92986 23.94650 300 ft 16 kts 216°
2026-04-25 10:16 37.92901 23.94570 303 ft 15 kts 217°
2026-04-25 10:16 37.92819 23.94494 302 ft 14 kts 216°
2026-04-25 10:17 37.92741 23.94420 301 ft 14 kts 217°
2026-04-25 10:17 37.92663 23.94345 302 ft 16 kts 217°
2026-04-25 10:17 37.92570 23.94294 304 ft 15 kts 163°
2026-04-25 10:17 37.92502 23.94382 307 ft 14 kts 120°
2026-04-25 10:18 37.92537 23.94501 308 ft 24 kts 39°
2026-04-25 10:18 37.92917 23.94862 297 ft 112 kts 37°
2026-04-25 10:18 37.93742 23.95640 427 ft 175 kts 37°
2026-04-25 10:18 37.94812 23.96630 1083 ft 206 kts 37°
2026-04-25 10:19 37.96033 23.97801 1680 ft 233 kts 36°
2026-04-25 10:19 37.97307 23.99031 2926 ft 226 kts 37°
2026-04-25 10:19 37.98567 24.00248 3913 ft 231 kts 37°
2026-04-25 10:19 37.99874 24.01512 4805 ft 240 kts 38°
2026-04-25 10:20 38.01204 24.02792 5773 ft 239 kts 38°
2026-04-25 10:20 38.02532 24.04068 6668 ft 243 kts 36°
2026-04-25 10:20 38.04159 24.04786 7250 ft 261 kts
2026-04-25 10:20 38.05962 24.04218 7877 ft 278 kts 333°
2026-04-25 10:21 38.07446 24.02593 8630 ft 289 kts 309°
2026-04-25 10:21 38.08394 24.00327 9497 ft 294 kts 291°
2026-04-25 10:21 38.09006 23.97826 10310 ft 299 kts 286°
2026-04-25 10:21 38.09537 23.95200 10747 ft 319 kts 285°
2026-04-25 10:22 38.10088 23.92361 11036 ft 340 kts 285°
2026-04-25 10:22 38.10666 23.89410 11727 ft 347 kts 285°
2026-04-25 10:22 38.11265 23.86420 12542 ft 352 kts 285°
2026-04-25 10:22 38.11883 23.83403 13345 ft 355 kts 285°
2026-04-25 10:23 38.12519 23.80347 14047 ft 361 kts 286°
2026-04-25 10:23 38.13173 23.77235 14638 ft 368 kts 286°
2026-04-25 10:23 38.13841 23.74065 15253 ft 375 kts 286°
2026-04-25 10:23 38.14517 23.70866 16003 ft 376 kts 286°
2026-04-25 10:24 38.15201 23.67632 16626 ft 382 kts 286°
2026-04-25 10:24 38.15894 23.64363 17342 ft 384 kts 286°
2026-04-25 10:24 38.16593 23.61064 17950 ft 390 kts 286°
2026-04-25 10:24 38.17300 23.57725 18599 ft 393 kts 286°
2026-04-25 10:25 38.17899 23.54889 19098 ft 396 kts 286°
2026-04-25 10:25 38.18615 23.51496 19722 ft 398 kts 286°
2026-04-25 10:25 38.19334 23.48081 20335 ft 402 kts 286°
2026-04-25 10:25 38.20058 23.44634 20866 ft 406 kts 286°
2026-04-25 10:26 38.20787 23.41156 21469 ft 408 kts 286°
2026-04-25 10:26 38.21518 23.37661 22057 ft 410 kts 286°
2026-04-25 10:26 38.22255 23.34137 22608 ft 414 kts 286°
2026-04-25 10:26 38.22999 23.30579 23112 ft 418 kts 286°
2026-04-25 10:27 38.23746 23.26990 23676 ft 420 kts 286°
2026-04-25 10:27 38.24496 23.23389 24146 ft 423 kts 286°
2026-04-25 10:27 38.25250 23.19760 24554 ft 427 kts 286°
2026-04-25 10:27 38.26010 23.16096 24999 ft 429 kts 286°
2026-04-25 10:28 38.26774 23.12412 25426 ft 432 kts 287°
2026-04-25 10:28 38.27542 23.08698 25831 ft 435 kts 287°
2026-04-25 10:28 38.28314 23.04959 26212 ft 439 kts 287°
2026-04-25 10:28 38.29092 23.01181 26583 ft 443 kts 287°
2026-04-25 10:29 38.29874 22.97377 26964 ft 446 kts 287°
2026-04-25 10:29 38.30659 22.93551 27362 ft 448 kts 287°
2026-04-25 10:29 38.31448 22.89697 27737 ft 451 kts 287°
2026-04-25 10:29 38.32243 22.85809 28099 ft 455 kts 287°
2026-04-25 10:30 38.33040 22.81905 28439 ft 457 kts 287°
2026-04-25 10:30 38.33842 22.77969 28736 ft 460 kts 288°
2026-04-25 10:30 38.34647 22.74012 29096 ft 463 kts 288°
2026-04-25 10:30 38.35454 22.70034 29454 ft 465 kts 288°
2026-04-25 10:31 38.36255 22.66031 29775 ft 468 kts 287°
2026-04-25 10:31 38.37040 22.61992 30093 ft 471 kts 287°
2026-04-25 10:31 38.37828 22.57937 30373 ft 472 kts 287°
2026-04-25 10:31 38.38629 22.53868 30653 ft 474 kts 287°
2026-04-25 10:32 38.39438 22.49795 30903 ft 476 kts 287°
2026-04-25 10:32 38.40259 22.45709 31236 ft 475 kts 288°
2026-04-25 10:32 38.41078 22.41642 31615 ft 473 kts 288°
2026-04-25 10:32 38.41898 22.37577 31963 ft 473 kts 288°
2026-04-25 10:33 38.42715 22.33520 32319 ft 472 kts 287°
2026-04-25 10:33 38.43527 22.29479 32721 ft 470 kts 287°
2026-04-25 10:33 38.44336 22.25440 33047 ft 470 kts 287°
2026-04-25 10:33 38.45144 22.21402 33262 ft 471 kts 287°
2026-04-25 10:34 38.45950 22.17357 33664 ft 469 kts 287°
2026-04-25 10:34 38.46749 22.13336 34056 ft 466 kts 287°
2026-04-25 10:34 38.47543 22.09333 34376 ft 465 kts 287°
2026-04-25 10:34 38.48334 22.05345 34682 ft 464 kts 287°
2026-04-25 10:35 38.49122 22.01362 34983 ft 462 kts 287°
2026-04-25 10:35 38.49907 21.97392 35319 ft 460 kts 287°
2026-04-25 10:35 38.50685 21.93441 35642 ft 458 kts 287°
2026-04-25 10:35 38.51461 21.89502 35926 ft 457 kts 287°
2026-04-25 10:36 38.52348 21.85613 36150 ft 455 kts 294°
2026-04-25 10:36 38.53640 21.81951 36347 ft 450 kts 303°
2026-04-25 10:36 38.55329 21.78612 36613 ft 446 kts 307°
2026-04-25 10:36 38.57099 21.75365 36881 ft 445 kts 308°
2026-04-25 10:37 38.58876 21.72124 37055 ft 445 kts 307°
2026-04-25 10:37 38.60644 21.68873 37271 ft 445 kts 307°
2026-04-25 10:37 38.62393 21.65617 37579 ft 443 kts 307°
2026-04-25 10:37 38.64122 21.62370 37846 ft 441 kts 307°
2026-04-25 10:38 38.65844 21.59127 38013 ft 441 kts 307°
2026-04-25 10:38 38.69301 21.52585 38038 ft 445 kts 307°
2026-04-25 10:39 38.72762 21.46035 38022 ft 442 kts 306°
2026-04-25 10:39 38.76184 21.39534 38023 ft 439 kts 306°
2026-04-25 10:40 38.79585 21.33058 38028 ft 436 kts 306°
2026-04-25 10:40 38.82966 21.26608 38030 ft 435 kts 306°
2026-04-25 10:41 38.86340 21.20158 38035 ft 435 kts 306°
2026-04-25 10:41 38.89712 21.13700 38036 ft 436 kts 306°
2026-04-25 10:42 38.93090 21.07216 38027 ft 438 kts 306°
2026-04-25 10:42 38.96482 21.00693 38034 ft 440 kts 306°
2026-04-25 10:43 38.99881 20.94146 38026 ft 441 kts 306°
2026-04-25 10:43 39.03294 20.87564 38030 ft 443 kts 306°
2026-04-25 10:44 39.06713 20.80954 38019 ft 444 kts 306°
2026-04-25 10:44 39.10135 20.74320 38037 ft 445 kts 306°
2026-04-25 10:45 39.13562 20.67665 38019 ft 446 kts 306°
2026-04-25 10:45 39.16987 20.61001 38028 ft 446 kts 306°
2026-04-25 10:46 39.20402 20.54341 38023 ft 445 kts 306°
2026-04-25 10:46 39.23812 20.47678 38030 ft 445 kts 306°
2026-04-25 10:47 39.27213 20.41022 38014 ft 443 kts 306°
2026-04-25 10:47 39.30607 20.34392 38026 ft 442 kts 306°
2026-04-25 10:48 39.33984 20.27785 38027 ft 441 kts 306°
2026-04-25 10:48 39.37351 20.21178 38024 ft 440 kts 306°
2026-04-25 10:49 39.40708 20.14578 38018 ft 438 kts 306°
2026-04-25 10:49 39.44067 20.08008 38018 ft 437 kts 308°
2026-04-25 10:50 39.48107 20.02200 38026 ft 433 kts 317°
2026-04-25 10:50 39.52377 19.96680 38026 ft 433 kts 317°
2026-04-25 10:51 39.56635 19.91140 38024 ft 434 kts 317°
2026-04-25 10:51 39.60870 19.85558 38026 ft 435 kts 317°
2026-04-25 10:52 39.65103 19.79943 38019 ft 436 kts 317°
2026-04-25 10:52 39.69339 19.74310 38024 ft 436 kts 317°
2026-04-25 10:53 39.73578 19.68664 38021 ft 437 kts 317°
2026-04-25 10:53 39.77097 19.63970 38025 ft 436 kts 317°
2026-04-25 10:54 39.82018 19.57391 38026 ft 436 kts 317°
2026-04-25 10:54 39.85556 19.52654 38034 ft 436 kts 316°
2026-04-25 10:55 39.89777 19.46991 38034 ft 436 kts 316°
2026-04-25 10:55 39.93510 19.40767 38056 ft 438 kts 305°
2026-04-25 10:56 39.96716 19.34007 38045 ft 438 kts 304°
2026-04-25 10:56 39.99902 19.27236 38049 ft 438 kts 304°
2026-04-25 10:57 40.03124 19.20489 38054 ft 438 kts 304°
2026-04-25 10:57 40.06359 19.13755 38061 ft 438 kts 304°
2026-04-25 10:58 40.09595 19.07022 38059 ft 438 kts 304°
2026-04-25 10:58 40.12841 19.00257 37666 ft 441 kts 305°
2026-04-25 10:58 40.14456 18.96882 37300 ft 435 kts 305°
2026-04-25 10:59 40.16045 18.93555 36950 ft 429 kts 305°
2026-04-25 10:59 40.17616 18.90261 36541 ft 425 kts 305°
2026-04-25 10:59 40.19173 18.86995 36166 ft 421 kts 305°
2026-04-25 10:59 40.20715 18.83757 35781 ft 417 kts 305°
2026-04-25 11:00 40.22240 18.80554 35393 ft 414 kts 305°
2026-04-25 11:00 40.23755 18.77369 35006 ft 411 kts 306°
2026-04-25 11:00 40.25257 18.74207 34640 ft 407 kts 306°
2026-04-25 11:00 40.26747 18.71069 34260 ft 404 kts 306°
2026-04-25 11:01 40.28224 18.67951 33858 ft 402 kts 306°
2026-04-25 11:01 40.29693 18.64852 33434 ft 399 kts 306°
2026-04-25 11:01 40.31144 18.61783 33062 ft 394 kts 306°
2026-04-25 11:01 40.32584 18.58736 32681 ft 391 kts 306°
2026-04-25 11:02 40.34004 18.55727 32334 ft 387 kts 306°
2026-04-25 11:02 40.35414 18.52738 31961 ft 384 kts 306°
2026-04-25 11:02 40.36810 18.49777 31610 ft 380 kts 306°
2026-04-25 11:02 40.38195 18.46837 31254 ft 378 kts 306°
2026-04-25 11:03 40.39570 18.43915 30902 ft 375 kts 306°
2026-04-25 11:03 40.40933 18.41015 30561 ft 372 kts 306°
2026-04-25 11:03 40.42285 18.38134 30222 ft 369 kts 306°
2026-04-25 11:03 40.43626 18.35277 29838 ft 367 kts 306°
2026-04-25 11:04 40.44957 18.32440 29474 ft 363 kts 306°
2026-04-25 11:04 40.46084 18.30032 29159 ft 360 kts 306°
2026-04-25 11:04 40.46952 18.28176 28932 ft 359 kts 306°
2026-04-25 11:05 40.48703 18.24434 28443 ft 362 kts 306°
2026-04-25 11:05 40.50014 18.21628 28088 ft 359 kts 306°
2026-04-25 11:05 40.51314 18.18840 27729 ft 355 kts 306°
2026-04-25 11:05 40.52597 18.16083 27377 ft 352 kts 306°
2026-04-25 11:06 40.53871 18.13345 27023 ft 350 kts 306°
2026-04-25 11:06 40.55135 18.10630 26676 ft 347 kts 306°
2026-04-25 11:06 40.56392 18.07928 26325 ft 345 kts 306°
2026-04-25 11:06 40.57620 18.05285 25999 ft 342 kts 306°
2026-04-25 11:07 40.58873 18.02585 25670 ft 340 kts 306°
2026-04-25 11:07 40.60085 17.99974 25332 ft 339 kts 306°
2026-04-25 11:07 40.61309 17.97332 24993 ft 337 kts 306°
2026-04-25 11:07 40.62526 17.94704 24669 ft 336 kts 305°
2026-04-25 11:08 40.63737 17.92087 24341 ft 335 kts 305°
2026-04-25 11:08 40.64945 17.89474 24005 ft 334 kts 305°
2026-04-25 11:08 40.66150 17.86864 23670 ft 333 kts 305°
2026-04-25 11:08 40.67353 17.84256 23290 ft 332 kts 305°
2026-04-25 11:09 40.68547 17.81665 22925 ft 331 kts 305°
2026-04-25 11:09 40.69737 17.79081 22583 ft 329 kts 305°
2026-04-25 11:09 40.70917 17.76515 22251 ft 326 kts 305°
2026-04-25 11:09 40.72092 17.73963 21930 ft 324 kts 305°
2026-04-25 11:10 40.73256 17.71430 21596 ft 322 kts 305°
2026-04-25 11:10 40.74038 17.69726 21387 ft 321 kts 305°
2026-04-25 11:10 40.75564 17.66398 20969 ft 319 kts 305°
2026-04-25 11:10 40.76706 17.63906 20652 ft 317 kts 305°
2026-04-25 11:11 40.77846 17.61418 20343 ft 316 kts 305°
2026-04-25 11:11 40.78976 17.58945 20031 ft 315 kts 305°
2026-04-25 11:11 40.80093 17.56505 19260 ft 323 kts 304°
2026-04-25 11:11 40.81266 17.53942 18507 ft 328 kts 304°
2026-04-25 11:12 40.82453 17.51342 17656 ft 333 kts 304°
2026-04-25 11:12 40.83653 17.48710 16804 ft 337 kts 304°
2026-04-25 11:12 40.84866 17.46048 15967 ft 340 kts 304°
2026-04-25 11:12 40.86086 17.43367 15153 ft 342 kts 304°
2026-04-25 11:13 40.87302 17.40656 14369 ft 344 kts 303°
2026-04-25 11:13 40.88498 17.37913 13558 ft 345 kts 303°
2026-04-25 11:13 40.89689 17.35156 12698 ft 346 kts 302°
2026-04-25 11:13 40.90883 17.32390 11852 ft 347 kts 302°
2026-04-25 11:14 40.92079 17.29622 11019 ft 345 kts 302°
2026-04-25 11:14 40.93268 17.26873 10234 ft 344 kts 302°
2026-04-25 11:14 40.94450 17.24142 9543 ft 338 kts 302°
2026-04-25 11:14 40.95583 17.21516 9325 ft 319 kts 302°
2026-04-25 11:15 40.96653 17.19035 9162 ft 301 kts 302°
2026-04-25 11:15 40.97661 17.16703 9090 ft 283 kts 303°
2026-04-25 11:15 40.98606 17.14519 9064 ft 266 kts 302°
2026-04-25 11:15 40.99500 17.12446 9067 ft 253 kts 303°
2026-04-25 11:16 41.01210 17.08481 9081 ft 245 kts 303°
2026-04-25 11:16 41.02057 17.06515 9080 ft 246 kts 303°
2026-04-25 11:16 41.02909 17.04545 9069 ft 247 kts 303°
2026-04-25 11:17 41.03760 17.02569 9088 ft 247 kts 303°
2026-04-25 11:17 41.04611 17.00592 9087 ft 248 kts 303°
2026-04-25 11:17 41.05466 16.98602 9086 ft 249 kts 302°
2026-04-25 11:17 41.06322 16.96611 9060 ft 249 kts 303°
2026-04-25 11:18 41.07177 16.94615 9083 ft 249 kts 303°
2026-04-25 11:18 41.08030 16.92625 9071 ft 249 kts 302°
2026-04-25 11:18 41.08882 16.90636 9086 ft 247 kts 302°
2026-04-25 11:18 41.09729 16.88655 9076 ft 247 kts 303°
2026-04-25 11:19 41.10576 16.86673 9082 ft 247 kts 302°
2026-04-25 11:19 41.11421 16.84696 9076 ft 247 kts 303°
2026-04-25 11:19 41.12265 16.82718 9074 ft 247 kts 302°
2026-04-25 11:19 41.13111 16.80733 9079 ft 247 kts 302°
2026-04-25 11:20 41.13959 16.78745 9081 ft 248 kts 302°
2026-04-25 11:20 41.14806 16.76754 9026 ft 247 kts 302°
2026-04-25 11:20 41.15644 16.74781 8823 ft 246 kts 302°
2026-04-25 11:20 41.16490 16.72801 8565 ft 247 kts 302°
2026-04-25 11:21 41.17329 16.70824 8456 ft 245 kts 302°
2026-04-25 11:21 41.18165 16.68864 8251 ft 243 kts 302°
2026-04-25 11:21 41.19011 16.66887 8006 ft 243 kts 302°
2026-04-25 11:21 41.19828 16.64962 7754 ft 242 kts 302°
2026-04-25 11:22 41.20421 16.62876 7480 ft 246 kts 277°
2026-04-25 11:22 41.20351 16.61345 7329 ft 247 kts 260°
2026-04-25 11:22 41.19624 16.58444 7036 ft 248 kts 251°
2026-04-25 11:22 41.18989 16.56309 6806 ft 248 kts 251°
2026-04-25 11:23 41.18363 16.54214 6610 ft 246 kts 251°
2026-04-25 11:23 41.17739 16.52097 6360 ft 247 kts 251°
2026-04-25 11:23 41.17119 16.49959 6137 ft 244 kts 251°
2026-04-25 11:23 41.16515 16.47862 5907 ft 243 kts 251°
2026-04-25 11:24 41.15913 16.45765 5706 ft 243 kts 252°
2026-04-25 11:24 41.15316 16.43685 5556 ft 240 kts 252°
2026-04-25 11:24 41.14721 16.41611 5303 ft 241 kts 252°
2026-04-25 11:24 41.14131 16.39539 5087 ft 239 kts 252°
2026-04-25 11:25 41.13547 16.37487 4919 ft 237 kts 252°
2026-04-25 11:25 41.12901 16.35487 4680 ft 239 kts 237°
2026-04-25 11:25 41.11589 16.34197 4582 ft 235 kts 198°
2026-04-25 11:25 41.10006 16.34061 4493 ft 226 kts 168°
2026-04-25 11:26 41.08619 16.34853 4369 ft 213 kts 141°
2026-04-25 11:26 41.07642 16.36251 4243 ft 203 kts 117°
2026-04-25 11:26 41.07191 16.37988 3962 ft 199 kts 101°
2026-04-25 11:26 41.06851 16.39754 3699 ft 197 kts 101°
2026-04-25 11:27 41.06510 16.41501 3500 ft 196 kts 100°
2026-04-25 11:27 41.06170 16.43258 3268 ft 197 kts 101°
2026-04-25 11:27 41.05846 16.45016 3123 ft 197 kts 99°
2026-04-25 11:27 41.05703 16.46190 3053 ft 192 kts 83°
2026-04-25 11:28 41.06148 16.48380 3053 ft 185 kts 67°
2026-04-25 11:28 41.06554 16.49981 3050 ft 182 kts 67°
2026-04-25 11:28 41.06985 16.51594 3046 ft 188 kts 68°
2026-04-25 11:28 41.07434 16.53243 3051 ft 193 kts 66°
2026-04-25 11:29 41.07906 16.54902 3037 ft 190 kts 65°
2026-04-25 11:29 41.08365 16.56528 2970 ft 189 kts 66°
2026-04-25 11:29 41.08826 16.58169 2675 ft 188 kts 66°
2026-04-25 11:29 41.09261 16.59732 2465 ft 176 kts 66°
2026-04-25 11:30 41.09671 16.61221 2219 ft 166 kts 66°
2026-04-25 11:30 41.10066 16.62604 2006 ft 157 kts 64°
2026-04-25 11:30 41.10431 16.63908 1858 ft 147 kts 65°
2026-04-25 11:30 41.10776 16.65141 1638 ft 140 kts 64°
2026-04-25 11:31 41.11115 16.66349 1492 ft 141 kts 65°
2026-04-25 11:31 41.11455 16.67592 1340 ft 142 kts 63°
2026-04-25 11:31 41.11802 16.68818 1161 ft 142 kts 64°
2026-04-25 11:31 41.12151 16.70029 995 ft 135 kts 65°
2026-04-25 11:32 41.12474 16.71192 817 ft 137 kts 65°
2026-04-25 11:32 41.12810 16.72360 578 ft 135 kts 68°
2026-04-25 11:32 41.13134 16.73508 366 ft 132 kts 69°
2026-04-25 11:32 41.13457 16.74661 215 ft 131 kts 69°
2026-04-25 11:33 41.13745 16.75675 165 ft 98 kts 70°
2026-04-25 11:33 41.13890 16.76187 147 ft 28 kts 70°
2026-04-25 11:33 41.13932 16.76356 142 ft 28 kts 67°
2026-04-25 11:33 41.13998 16.76618 134 ft 14 kts 95°
2026-04-25 11:34 41.13972 16.76701 133 ft 12 kts 129°
2026-04-25 11:34 41.13893 16.76679 133 ft 14 kts 216°
2026-04-25 11:34 41.13813 16.76596 137 ft 15 kts 212°
2026-04-25 11:34 41.13676 16.76532 140 ft 16 kts 211°
2026-04-25 11:35 41.13634 16.76451 143 ft 16 kts 250°
2026-04-25 11:35 41.13596 16.76316 149 ft 15 kts 249°
2026-04-25 11:35 41.13559 16.76222 152 ft 5 kts 213°
2026-04-25 11:35 41.13525 16.76224 152 ft 5 kts 165°
2026-04-25 11:36 41.13504 16.76234 153 ft 1 kts 160°
2026-04-25 11:36 41.13503 16.76234 153 ft 0 kts 160°